一网星座-0350星 (ONEWEB-0350 )

导读

ONEWEB-0350是英国OneWeb公司低轨宽带卫星星座的组网卫星,于北京时间2021年9月14日发射入轨。作为OneWeb一期星座成员,该单星重约147.5公斤,设计寿命5年,搭载Ku/Ka波段天线,单星通信能力约7.5Gbps,可提供最高50Mbps下载速率。它服务于全球卫星互联网组网,面向企业、运营商提供高速低延迟宽带连接,助力填补偏远地区网络覆盖空白。

基本信息
目录编号:
49214
目录名称:
ONEWEB-0350
国际标识:
2021-083AE
轨道中心:
EARTH
卫星名称:
一网星座-0350星
卫星全名:
一网星座-0350星 (ONEWEB-0350 )
卫星状态:
在轨 (已飞行1827 天)
发射日期:
2021-09-14 UTC
国别 :
英国 (GB)
星等 :
--
该卫星已列入 空间交会检测服务 Space Conjunction Data Service (SCDS) ,当前飞行风险评估等级: 无高风险
轨道信息
数据来源 国际轨道数据 AOE轨道数据
星历时间 2026-09-15T10:18:05+0800
20小时前
查看轨道信息
2026-09-15T00:00:00+0800
1天前
查看轨道信息
半长轴 7587.905km 7587.901km
偏心率 0.0002811 0.0002811
轨道倾角 87.892° 87.893°
近地点辐角 81.719° 80.811°
升交点赤经 302.341° 302.426°
平近点角 278.426° 50.876°
近地点 1207.635km 1207.631km
远地点 1211.901km 1211.897km
周期 109.633分钟 109.633分钟
每日圈数 13.134695 13.134706
详细信息
平衡模式:
三轴稳定
覆盖范围:
全球
运营商:
一网卫星公司
运营商所在国:
英国
制造商(研发单位):
一网卫星公司
制造商所在国:
英国
使用方式:
暂无
卫星简介
OneWeb卫星网络由648颗重约125公斤的微型卫星组成,运行在1200公里的轨道上。 每颗卫星都能够提供至少每秒8千兆位的吞吐量,以使用其高吞吐量的Ku频段有效载荷为家庭和移动平台提供互联网接入。该卫星仍在工作。
2D轨道图
3D轨道图
轨道高度分析图
轨道倾角分析图
轨道综合分析图
查看轨道综合分析图
与全量物体交会距离演化趋势 订阅飞行安全评估服务
与全量物体交会风险概率演化趋势 订阅飞行安全评估服务